EW1682 Weather Reports


time (UTC)temp
C
wind
direction
speed
KPH
gust
KPH
rain 1hr
cm
rain 24hr
cm
rain mn
cm
humidity
%
barometer
mb
20260507000207 20 184 0.0 1.6 0.00 0.00 0.00 73 1021.3
20260506235707 20 184 1.6 3.2 0.00 0.00 0.00 73 1021.3
20260506234706 20 175 1.6 1.6 0.00 0.00 0.00 72 1021.3
20260506234206 20 189 0.0 0.0 0.00 0.00 0.00 72 1021.3
20260506233212 20 211 0.0 0.0 0.00 0.00 0.00 72 1021.3
20260506232708 20 211 0.0 0.0 0.00 0.00 0.00 72 1021.3
20260506232209 20 211 1.6 3.2 0.00 0.00 0.00 72 1021.3
20260506230206 20 176 0.0 3.2 0.00 0.00 0.00 71 1021.3
20260506225206 20 175 1.6 3.2 0.00 0.00 0.00 71 1021.3
20260506224706 20 240 3.2 4.8 0.00 0.00 0.00 71 1021.3
20260506224206 20 234 3.2 4.8 0.00 0.00 0.00 71 1021.3
20260506223707 20 223 3.2 4.8 0.00 0.00 0.00 71 1021.3
20260506222710 20 206 3.2 9.7 0.00 0.00 0.00 70 1021.3
20260506221708 20 195 1.6 4.8 0.00 0.00 0.00 71 1021.3
20260506221207 20 202 3.2 4.8 0.00 0.00 0.00 71 1021.3
20260506220707 20 240 4.8 4.8 0.00 0.00 0.00 71 1021.3
20260506220210 20 178 4.8 11.3 0.00 0.00 0.00 71 1021.3
20260506215706 20 202 3.2 4.8 0.00 0.00 0.00 71 1021.3
20260506215207 20 221 1.6 4.8 0.00 0.00 0.00 71 1021.3
20260506214708 20 225 3.2 4.8 0.00 0.00 0.00 71 1021.3
20260506214206 20 194 1.6 4.8 0.00 0.00 0.00 72 1021.3
20260506212708 20 197 1.6 4.8 0.00 0.00 0.00 72 1021.3
20260506212207 20 217 1.6 3.2 0.00 0.00 0.00 72 1021.3
20260506211707 20 211 1.6 4.8 0.00 0.00 0.00 72 1021.3
20260506210210 20 180 3.2 4.8 0.00 0.00 0.00 73 1021.3
20260506205709 20 210 3.2 8.0 0.00 0.00 0.00 73 1021.3
20260506205207 20 187 3.2 9.7 0.00 0.00 0.00 73 1021.3
20260506204707 20 215 3.2 4.8 0.00 0.00 0.00 74 1021.3
20260506204206 20 177 4.8 9.7 0.00 0.00 0.00 74 1021.3
20260506203711 19 191 4.8 8.0 0.00 0.00 0.00 74 1021.3
20260506203207 19 233 3.2 4.8 0.00 0.00 0.00 74 1021.3
20260506202707 19 249 3.2 4.8 0.00 0.00 0.00 74 1021.3
20260506202206 19 234 1.6 8.0 0.00 0.00 0.00 74 1021.3
20260506195707 19 193 3.2 9.7 0.00 0.00 0.00 74 1021.3
20260506194209 19 197 4.8 8.0 0.00 0.00 0.00 74 1021.3
20260506193707 18 182 4.8 8.0 0.00 0.00 0.00 74 1021.3
20260506193208 18 216 8.0 11.3 0.00 0.00 0.00 74 1021.3
20260506192708 18 228 9.7 11.3 0.00 0.00 0.00 75 1021.3
20260506192209 18 229 6.4 14.5 0.00 0.00 0.00 75 1021.3
20260506190209 19 182 6.4 9.7 0.00 0.00 0.00 73 1021.3
20260506185708 19 180 6.4 9.7 0.00 0.00 0.00 73 1021.3
20260506185207 19 190 6.4 11.3 0.00 0.00 0.00 73 1021.3
20260506184707 19 200 4.8 8.0 0.00 0.00 0.00 73 1021.3
20260506184206 19 215 6.4 14.5 0.00 0.00 0.00 72 1021.3
20260506183707 20 181 4.8 14.5 0.00 0.00 0.00 70 1021.3
20260506183210 20 204 6.4 12.9 0.00 0.00 0.00 69 1021.3
20260506182708 21 188 8.0 8.0 0.00 0.00 0.00 67 1021.3
20260506182212 21 232 6.4 11.3 0.00 0.00 0.00 68 1021.3
20260506180206 21 217 1.6 9.7 0.00 0.00 0.00 66 1021.3
20260506175706 21 191 4.8 9.7 0.00 0.00 0.00 66 1021.3
20260506175206 21 186 3.2 8.0 0.00 0.00 0.00 66 1021.3
20260506174708 21 190 4.8 11.3 0.00 0.00 0.00 65 1021.3
20260506174206 21 217 1.6 8.0 0.00 0.00 0.00 66 1021.3
20260506173707 21 203 4.8 9.7 0.00 0.00 0.00 65 1021.3
20260506173208 21 169 4.8 9.7 0.00 0.00 0.00 64 1021.3
20260506172707 21 201 3.2 4.8 0.00 0.00 0.00 63 1021.3
20260506172206 21 200 3.2 4.8 0.00 0.00 0.00 63 1021.3
20260506165206 21 211 4.8 11.3 0.00 0.00 0.00 61 1021.3
20260506164708 21 269 6.4 12.9 0.00 0.00 0.00 61 1021.3
20260506164209 21 204 4.8 12.9 0.00 0.00 0.00 62 1021.3
20260506163709 21 279 4.8 8.0 0.00 0.00 0.00 62 1021.3
20260506163208 21 213 8.0 14.5 0.00 0.00 0.00 61 1021.3
20260506162217 22 191 3.2 14.5 0.00 0.00 0.00 58 1021.3
20260506160206 22 229 4.8 9.7 0.00 0.00 0.00 54 1021.3
20260506155705 22 198 4.8 9.7 0.00 0.00 0.00 53 1021.3
20260506155206 23 206 4.8 9.7 0.00 0.00 0.00 53 1021.3
20260506154710 23 211 3.2 9.7 0.00 0.00 0.00 52 1021.3
20260506151712 22 197 8.0 12.9 0.00 0.00 0.00 54 1021.3
20260506150205 22 207 4.8 16.1 0.00 0.00 0.00 53 1021.3
20260506145705 22 208 9.7 16.1 0.00 0.00 0.00 54 1021.3
20260506145206 22 190 8.0 16.1 0.00 0.00 0.00 54 1021.3
20260506144707 22 163 8.0 11.3 0.00 0.00 0.00 54 1021.3
20260506142215 22 197 8.0 14.5 0.00 0.00 0.00 58 1021.3
20260506140206 22 168 8.0 11.3 0.00 0.00 0.00 58 1021.3
20260506135706 22 228 8.0 14.5 0.00 0.00 0.00 59 1021.3
20260506135206 22 206 4.8 14.5 0.00 0.00 0.00 59 1021.3
20260506134706 22 174 3.2 14.5 0.00 0.00 0.00 60 1021.3
20260506134209 21 182 3.2 11.3 0.00 0.00 0.00 60 1021.3
20260506133216 21 216 8.0 14.5 0.00 0.00 0.00 61 1021.3
20260506131722 21 179 3.2 9.7 0.00 0.00 0.00 63 1021.3
20260506130206 20 208 6.4 19.3 0.00 0.00 0.00 66 1021.3
20260506125707 20 193 8.0 19.3 0.00 0.00 0.00 68 1021.3
20260506125206 19 202 4.8 19.3 0.00 0.00 0.00 70 1021.3
20260506124707 19 207 4.8 11.3 0.00 0.00 0.00 70 1021.3
20260506121718 18 178 4.8 8.0 0.00 0.00 0.00 74 1021.3
20260506120206 17 254 4.8 4.8 0.00 0.00 0.00 74 1021.3
20260506115710 17 234 4.8 11.3 0.00 0.00 0.00 75 1021.3
20260506115207 17 226 4.8 11.3 0.00 0.00 0.00 77 1021.3
20260506114207 17 233 3.2 12.9 0.00 0.00 0.00 78 1021.3
20260506111713 16 179 3.2 8.0 0.00 0.00 0.00 80 1021.3
20260506110207 16 196 4.8 4.8 0.00 0.00 0.00 82 1021.3
20260506105707 16 190 1.6 4.8 0.00 0.00 0.00 82 1021.3
20260506105207 15 178 1.6 4.8 0.00 0.00 0.00 82 1021.3
20260506104210 15 186 3.2 8.0 0.00 0.00 0.00 83 1021.3
20260506102219 15 194 3.2 4.8 0.00 0.00 0.00 82 1021.3
20260506100207 16 190 3.2 4.8 0.00 0.00 0.00 82 1021.3
20260506095207 16 208 3.2 4.8 0.00 0.00 0.00 82 1021.3
20260506094709 16 194 3.2 4.8 0.00 0.00 0.00 82 1021.3
20260506091210 16 192 1.6 4.8 0.00 0.00 0.00 81 1021.3
20260506085712 16 171 3.2 8.0 0.00 0.00 0.00 80 1021.3
20260506084714 16 203 4.8 11.3 0.00 0.00 0.00 80 1021.3
20260506071717 17 188 4.8 12.9 0.00 0.00 0.00 77 1021.3
20260506070209 17 196 3.2 4.8 0.00 0.00 0.00 77 1021.3
20260506060210 17 178 3.2 8.0 0.00 0.00 0.00 76 1021.3
20260506050206 17 213 1.6 3.2 0.00 0.00 0.00 72 1021.3
20260506044213 18 189 3.2 4.8 0.00 0.00 0.00 70 1021.3
20260506042208 18 180 3.2 4.8 0.00 0.00 0.00 70 1021.3
20260506041706 18 179 3.2 4.8 0.00 0.00 0.00 70 1021.3
20260506041206 18 181 1.6 4.8 0.00 0.00 0.00 69 1021.3
20260506040207 18 184 3.2 4.8 0.00 0.00 0.00 69 1021.3
20260506035709 18 191 4.8 4.8 0.00 0.00 0.00 69 1021.3
20260506034707 18 184 3.2 4.8 0.00 0.00 0.00 69 1021.3
20260506032212 18 211 3.2 12.9 0.00 0.00 0.00 68 1021.3
20260506030207 18 215 3.2 8.0 0.00 0.00 0.00 67 1021.3
20260506025219 18 202 3.2 9.7 0.00 0.00 0.00 66 1021.3
20260506024209 19 209 3.2 9.7 0.00 0.00 0.00 66 1021.3
20260506022217 19 212 1.6 4.8 0.00 0.00 0.00 64 1021.3
20260506020216 20 200 8.0 16.1 0.00 0.00 0.00 61 1021.3
20260506011707 20 181 3.2 9.7 0.00 0.00 0.00 59 1021.3
20260506011206 20 148 4.8 9.7 0.00 0.00 0.00 59 1021.3
20260506010709 20 201 3.2 8.0 0.00 0.00 0.00 58 1021.3
20260506010208 20 196 4.8 12.9 0.00 0.00 0.00 58 1021.3
20260506005708 20 164 3.2 9.7 0.00 0.00 0.00 57 1021.3
20260506005207 20 215 4.8 4.8 0.00 0.00 0.00 57 1021.3
20260506004706 20 201 4.8 14.5 0.00 0.00 0.00 57 1021.3
20260506004205 20 177 3.2 8.0 0.00 0.00 0.00 57 1021.3
20260506003707 20 180 3.2 9.7 0.00 0.00 0.00 56 1021.3
20260506002713 20 190 4.8 9.7 0.00 0.00 0.00 56 1021.3
20260506002207 21 196 4.8 24.1 0.00 0.00 0.00 55 1021.3
20260506001708 21 192 6.4 24.1 0.00 0.00 0.00 55 1021.3